KC3PWY-13 Weather Reports


time (UTC)temp
C
wind
direction
speed
KPH
gust
KPH
rain 1hr
cm
rain 24hr
cm
rain mn
cm
humidity
%
barometer
mb
20260504042152 5 247 0.0 0.0 0.00 0.00 0.00 69 1015.1
20260504041152 5 202 0.0 0.0 0.00 0.00 0.00 68 1015.1
20260504040151 5 202 0.0 0.0 0.00 0.00 0.00 66 1015.0
20260504035150 5 225 0.0 0.0 0.00 0.00 0.00 66 1015.0
20260504034305 6 225 0.0 0.0 0.00 0.00 0.00 65 1015.0
20260504033304 6 247 0.0 0.0 0.00 0.00 0.00 65 1014.9
20260504032149 6 202 0.0 0.0 0.00 0.00 0.00 66 1014.9
20260504031148 6 225 0.0 0.0 0.00 0.00 0.00 65 1015.0
20260504030147 6 180 0.0 0.0 0.00 0.00 0.00 63 1015.0
20260504025146 7 225 0.0 0.0 0.00 0.00 0.00 62 1015.2
20260504024146 7 247 0.0 0.0 0.00 0.00 0.00 61 1015.2
20260504023301 7 247 0.0 0.0 0.00 0.00 0.00 61 1015.3
20260504022145 7 247 0.0 0.0 0.00 0.00 0.00 61 1015.3
20260504021145 7 270 0.0 0.0 0.00 0.00 0.00 61 1015.4
20260504020144 7 202 0.0 0.0 0.00 0.00 0.00 57 1015.3
20260504015258 7 247 0.0 0.0 0.00 0.00 0.00 56 1015.2
20260504014143 8 247 0.0 0.0 0.00 0.00 0.00 55 1015.1
20260504013142 8 247 0.0 0.0 0.00 0.00 0.00 54 1015.1
20260504012257 8 247 0.0 0.0 0.00 0.00 0.00 54 1015.0
20260504011141 8 247 0.0 0.0 0.00 0.00 0.00 53 1015.0
20260504010256 9 270 0.0 0.0 0.00 0.00 0.00 52 1015.0
20260504005142 10 247 0.0 0.0 0.00 0.00 0.00 52 1015.0
20260504004141 10 202 0.0 0.0 0.00 0.00 0.00 51 1014.9
20260504003256 10 247 0.0 0.0 0.00 0.00 0.00 50 1014.9
20260504002140 11 225 0.0 0.0 0.00 0.00 0.00 48 1014.9
20260504001140 11 180 0.0 1.6 0.00 0.00 0.00 48 1014.9
20260504000255 12 247 0.0 1.6 0.00 0.00 0.00 47 1014.9
20260503235139 12 112 0.0 3.2 0.00 0.00 0.00 44 1014.8
20260503234139 12 180 1.6 4.8 0.00 0.00 0.00 45 1014.9
20260503233138 13 202 0.0 4.8 0.00 0.00 0.00 46 1014.9
20260503232137 13 225 0.0 8.0 0.00 0.00 0.00 43 1014.9
20260503231136 13 202 3.2 6.4 0.00 0.00 0.00 43 1015.0
20260503230137 13 225 3.2 4.8 0.00 0.00 0.00 43 1014.9
20260503225136 13 112 0.0 4.8 0.00 0.00 0.00 42 1014.9
20260503224135 14 202 1.6 3.2 0.00 0.00 0.00 41 1015.0
20260503223135 14 180 3.2 4.8 0.00 0.00 0.00 40 1015.0
20260503222134 14 202 1.6 4.8 0.00 0.00 0.00 41 1015.1
20260503221134 15 337 3.2 6.4 0.00 0.00 0.00 40 1015.1
20260503220133 15 225 0.0 3.2 0.00 0.00 0.00 43 1015.1
20260503215247 15 247 3.2 6.4 0.00 0.00 0.00 39 1015.0
20260503214131 16 270 3.2 9.7 0.00 0.00 0.00 38 1014.9
20260503213131 16 180 0.0 9.7 0.00 0.00 0.00 39 1015.0
20260503212245 17 112 1.6 8.0 0.00 0.00 0.00 36 1014.9
20260503211129 16 202 1.6 6.4 0.00 0.00 0.00 37 1014.8
20260503210131 15 22 3.2 6.4 0.00 0.00 0.00 39 1015.0
20260503205129 15 292 3.2 8.0 0.00 0.00 0.00 37 1015.1
20260503204129 16 202 3.2 8.0 0.00 0.00 0.00 36 1015.3
20260503203128 16 292 3.2 4.8 0.00 0.00 0.00 37 1015.4
20260503202128 16 337 3.2 6.4 0.00 0.00 0.00 37 1015.5
20260503201127 16 247 0.0 4.8 0.00 0.00 0.00 40 1015.5
20260503200127 17 225 4.8 8.0 0.00 0.00 0.00 35 1015.6
20260503195126 16 135 4.8 9.7 0.00 0.00 0.00 36 1015.7
20260503194126 17 292 8.0 11.3 0.00 0.00 0.00 35 1015.9
20260503193124 16 45 4.8 9.7 0.00 0.00 0.00 38 1016.0
20260503192123 16 337 4.8 8.0 0.00 0.00 0.00 35 1016.2
20260503191123 17 315 3.2 6.4 0.00 0.00 0.00 36 1016.3
20260503190122 16 337 4.8 9.7 0.00 0.00 0.00 36 1016.5
20260503185122 14 225 3.2 6.4 0.00 0.00 0.00 40 1016.7
20260503184122 15 225 3.2 8.0 0.00 0.00 0.00 38 1016.9
20260503183120 16 270 4.8 6.4 0.00 0.00 0.00 38 1016.9
20260503182235 15 202 1.6 11.3 0.00 0.00 0.00 42 1017.0
20260503181120 16 202 1.6 6.4 0.00 0.00 0.00 37 1017.2
20260503180119 15 90 3.2 8.0 0.00 0.00 0.00 40 1017.3
20260503175118 15 315 1.6 6.4 0.00 0.00 0.00 38 1017.5
20260503174117 16 202 3.2 11.3 0.00 0.00 0.00 36 1017.4
20260503173117 16 225 3.2 11.3 0.00 0.00 0.00 38 1017.7
20260503172116 16 315 4.8 8.0 0.00 0.00 0.00 36 1017.8
20260503171116 15 202 4.8 6.4 0.00 0.00 0.00 37 1017.8
20260503170116 15 90 4.8 9.7 0.00 0.00 0.00 38 1018.0
20260503160112 15 157 3.2 8.0 0.00 0.05 0.00 38 1018.4
20260503150224 12 180 3.2 6.4 0.00 0.05 0.00 39 1018.8
20260503140107 9 315 3.2 6.4 0.00 0.05 0.00 57 1019.2
20260503131218 6 247 1.6 4.8 0.00 0.05 0.00 79 1019.4
20260503130104 5 202 1.6 4.8 0.00 0.05 0.00 81 1019.4
20260503120216 1 225 0.0 0.0 0.00 0.05 0.00 99 1019.0
20260503081050 0 247 0.0 0.0 0.00 0.05 0.00 99 1017.8
20260503072047 0 247 0.0 0.0 0.00 0.05 0.00 99 1017.7
20260503071047 0 247 0.0 0.0 0.00 0.05 0.00 99 1017.6
20260503055042 0 112 0.0 0.0 0.00 0.05 0.00 99 1017.7
20260503054041 0 270 0.0 0.0 0.00 0.05 0.00 99 1017.8
20260503053041 0 247 0.0 0.0 0.00 0.05 0.00 99 1017.8
20260503052040 0 270 0.0 0.0 0.00 0.05 0.00 99 1017.9
20260503051040 0 202 0.0 0.0 0.00 0.05 0.00 99 1017.8
20260503050040 0 247 0.0 0.0 0.00 0.05 0.00 99 1018.0
20260503045154 0 225 0.0 0.0 0.00 0.05 0.00 99 1018.0
20260503044039 0 247 0.0 0.0 0.00 0.05 0.00 99 1018.0
20260503043038 0 247 0.0 0.0 0.00 0.05 0.00 99 1018.0